Sokodé Airport

Jump to: basic info | weather | comments

Related pages: nearby airports | nearby navaids | notams | map

Basic information (top)

Codes: DXSK
Location: lon 8.983000, lat 1.150000, elev 1,214 ft / 370 m msl
Status: small_airport
Scheduled airline service: no
Links: Wikipedia Mobile

Weather (top)

Current conditions (rec'd 2014/07/24 18:00Z):

DXSK 241800Z 00000KT 9999 TS SCT013 FEW020CB SCT120 BKN260 24/23 Q////

Airport forecast for Niamtougou International Airport 47nm (87km) N (rec'd 2014/07/25 06:30Z):

TAF TAF DXNG 250520Z 2506/2606 23005KT 9999 SCT008 
      TEMPO 2506/2510 BKN008 PROB30 
      TEMPO 2515/2519 TS BKN008 FEW016CB

Latest comments (top)

No comments yet for Sokodé Airport

More... (top)

See also NOTAMs and nearby airports and navaids, or visit the Sokodé Airport page at the main OurAirports website..